User: anonymous   Login
Location: La Vergne
(36.0160°N, 86.5820°W)
Time: 10:58:17
(UTC-05:00)
Language:

Cosmos 1703 Rocket - Orbit

View from above orbital plane
View from above orbital plane
View from above satellite
View from above satellite

Ground track
Ground track

The orbit data is extracted from the following two-line orbital elements,

1 16263U 85108B   15118.13255339  .00000467  00000-0  54709-4 0  9993
2 16263 082.5015 126.9365 0021297 043.6189 063.4517 14.82734646588636
Epoch (UTC): 28 April 2015 03:10:52
Eccentricity: 0.0021297
inclination: 82.5015°
perigee height: 606 km
apogee height: 635 km
right ascension of ascending node: 126.9365°
argument of perigee: 43.6189°
revolutions per day: 14.82734646
mean anomaly at epoch: 63.4517°
orbit number at epoch: 58863

The dashed part of the orbit path shows where the satellite is in the earth's shadow,  

DLR